Probability
0 0 0 0 0 0 0 0 0 0 0 0 0 0 0 0 0 0 0 0 0 0 0 0 0 0 0 0 0 1 2 2 1 0 0 0 0 0 0 0 0 0 0 0
0 0 0 0 0 0 0 0 0 0 0 0 0 0 0 0 0 0 0 0 0 0 0 0 0 0 0 0 0 0 1 1 0 0 0 0 0 0 0 0 0 0 0 0
0 0 0 0 0 0 0 0 0 0 0 0 0 0 0 0 0 0 0 0 0 0 0 0 0 0 0 0 0 0 0 0 0 0 0 0 0 0 0 0 0 0 0 0
0 0 0 0 0 0 0 0 0 0 0 0 0 0 0 0 0 0 0 0 0 0 0 0 0 0 0 0 0 0 0 0 0 1 1 0 0 0 0 0 0 0 0 0
0 0 0 0 0 0 0 0 0 0 0 0 0 0 0 0 0 0 0 0 0 0 0 0 0 0 0 0 0 0 0 0 0 1 2 1 0 0 0 0 0 0 0 0
0 0 0 0 0 0 0 0 0 0 0 0 0 0 0 0 0 0 0 0 0 0 0 0 0 0 0 0 0 0 0 0 0 1 2 2 1 1 0 0 0 0 0 0
0 0 0 0 0 0 0 0 0 0 0 0 0 0 0 0 0 0 0 0 0 0 0 0 0 0 0 0 0 0 0 0 0 1 1 2 2 2 1 1 0 0 0 0
0 0 0 0 0 0 0 0 0 0 0 0 0 0 0 0 0 0 0 0 0 0 0 0 0 0 0 0 0 0 0 0 1 1 1 1 3 3 3 2 1 0 0 0
0 0 0 0 0 0 0 0 0 0 0 0 0 0 0 0 0 0 0 0 0 0 0 0 0 0 0 0 0 0 0 0 1 2 2 2 3 3 3 3 2 1 0 0
0 0 0 0 0 0 0 0 0 0 0 0 0 0 0 0 0 0 0 0 0 0 0 0 0 0 0 0 0 0 0 0 1 2 3 3 3 3 3 3 3 1 0 0
0 0 0 0 0 0 0 0 0 0 0 0 0 0 0 0 0 0 0 0 0 0 0 0 0 0 0 0 0 0 0 0 0 2 3 4 3 3 3 3 2 1 0 0
0 0 0 0 0 0 0 0 0 0 0 0 0 0 0 0 0 0 0 0 0 0 0 0 0 0 0 0 0 0 0 0 0 2 3 4 3 3 3 2 1 1 0 0
0 0 0 0 0 0 0 0 0 0 0 0 0 0 0 0 0 0 0 0 0 0 0 0 0 0 0 0 0 0 0 0 0 2 4 4 3 3 2 1 0 0 0 0
0 0 0 0 0 0 0 0 0 0 0 0 0 0 0 0 0 0 0 0 0 0 0 0 0 0 0 0 0 0 0 0 0 2 3 3 2 1 1 0 0 0 0 0
0 0 0 0 0 0 0 0 0 0 0 0 0 0 0 0 0 0 0 0 0 0 0 0 0 0 0 0 0 0 0 0 0 0 1 2 1 0 0 0 0 0 0 0
0 0 0 0 0 0 0 0 0 0 0 0 0 0 0 0 0 0 0 0 0 0 0 0 0 0 0 0 0 0 0 0 0 0 0 1 1 1 0 0 0 0 0 0
0 0 0 0 0 0 0 0 0 0 0 0 0 0 0 0 0 0 0 0 0 0 0 0 0 0 0 0 0 0 0 0 0 0 0 1 1 1 0 0 0 0 0 0
0 0 0 0 0 0 0 0 0 0 0 0 0 0 0 0 0 0 0 0 0 0 0 0 0 0 0 0 0 0 0 0 0 0 0 0 0 0 0 0 0 0 0 0
0 0 0 0 0 0 0 0 0 0 0 0 0 0 0 0 0 0 0 0 0 0 0 0 0 0 0 0 0 0 0 0 0 0 0 0 0 0 0 0 0 0 0 0
0 0 0 0 0 0 0 0 0 0 0 0 0 0 0 0 0 0 0 0 0 0 0 0 0 0 0 0 0 0 0 0 0 0 0 0 0 0 0 0 0 0 0 0
0 0 0 0 0 0 0 0 0 0 0 0 0 0 0 0 0 0 0 0 0 0 0 0 0 0 0 0 0 0 0 0 0 0 0 0 0 0 0 0 0 0 0 0
0 0 0 0 0 0 0 0 0 0 0 0 0 0 0 0 0 0 0 0 0 0 0 0 0 0 0 0 0 0 0 0 0 0 0 0 0 0 0 0 0 0 0 0
0 0 0 0 0 0 0 0 0 0 0 0 0 0 0 0 0 0 0 0 0 0 0 0 0 0 0 0 0 0 0 0 0 0 0 0 0 0 0 0 0 0 0 0
0 0 0 0 0 0 0 0 0 0 0 0 0 0 0 0 0 0 0 0 0 0 0 0 0 0 0 0 0 0 0 0 0 0 0 0 0 0 0 0 0 0 0 0
0 0 0 0 0 0 0 0 0 0 0 0 0 0 0 0 0 0 0 0 0 0 0 0 0 0 0 0 0 0 0 0 0 0 0 0 0 0 0 0 0 0 0 0
0 0 0 0 0 0 0 0 0 0 0 0 0 0 0 0 0 0 0 0 0 0 0 0 0 0 0 0 0 0 0 0 0 0 0 0 0 0 0 0 0 0 0 0
Wind_Speed
1 2 5 8 8 5 3 4 5 6 2 3 7 10 9 5 4 6 6 6 6 7 5 3 2 1 1 2 3 4 4 4 4 3 4 3 3 3 2 2 3 4 4 4
2 6 8 4 4 4 4 5 6 5 2 3 6 10 8 6 6 7 8 8 7 6 4 3 2 1 1 1 2 3 4 4 4 4 3 3 3 2 2 2 2 3 3 4
7 4 3 4 4 5 7 8 7 6 4 2 4 9 6 5 5 5 6 6 6 5 5 3 2 1 1 1 1 2 3 3 4 3 2 2 2 1 1 2 2 2 3 3
5 4 2 3 5 6 8 6 6 4 2 4 1 7 6 4 5 5 6 4 4 3 3 2 2 1 1 2 1 1 2 3 3 3 4 5 4 3 3 2 2 2 2 3
4 2 3 5 6 6 5 2 3 4 4 4 3 5 8 2 5 7 6 4 3 2 2 2 2 2 1 1 0 1 2 2 3 3 4 4 3 2 2 2 2 2 2 2
4 2 2 3 2 4 2 2 1 1 1 6 7 7 8 4 7 5 4 3 2 2 1 1 1 1 1 1 1 1 1 2 2 3 3 4 3 3 3 2 2 2 1 1
4 3 2 1 1 0 2 3 2 3 2 8 3 5 10 6 4 4 4 3 2 1 1 1 1 1 1 1 1 0 1 1 2 3 3 3 3 4 4 3 3 2 2 2
3 5 3 2 4 5 4 5 6 5 5 5 3 8 8 3 2 2 1 1 1 1 1 1 1 1 1 1 1 0 1 1 1 2 3 3 3 3 2 3 2 3 2 2
3 5 2 1 1 4 4 4 3 2 1 3 6 6 7 2 2 1 1 2 2 2 2 2 2 2 2 1 1 0 1 1 1 1 1 2 2 2 2 3 2 2 2 2
3 4 3 2 0 1 3 4 3 4 3 5 6 5 5 3 3 2 2 2 3 2 2 2 2 2 2 2 2 2 1 1 1 0 1 1 1 1 2 2 2 2 2 1
2 3 3 1 4 5 3 3 3 3 4 5 5 7 4 4 3 2 3 2 2 2 2 2 2 2 2 2 2 2 2 2 1 1 0 1 1 0 1 1 2 2 1 1
2 2 3 6 4 2 4 5 5 4 5 4 4 7 2 1 1 2 2 2 2 2 1 1 2 2 2 3 3 3 2 2 1 1 1 0 1 1 1 0 0 1 1 1
2 2 1 4 2 1 2 2 3 2 2 4 5 7 1 2 2 2 2 2 2 2 2 2 2 2 2 2 3 3 2 2 2 1 1 1 1 0 0 1 1 0 1 1
1 3 5 7 5 2 4 4 3 4 4 6 9 9 6 5 5 4 3 2 1 2 1 1 2 2 2 2 2 2 3 2 2 1 1 1 1 1 1 1 0 0 1 1
2 3 5 7 6 4 6 6 6 8 8 9 10 10 10 7 5 4 3 2 2 2 2 2 2 2 2 2 2 2 2 2 2 1 1 1 1 1 1 1 1 1 0 0
2 3 2 5 5 5 8 9 10 10 9 10 11 13 8 5 3 3 4 3 4 4 4 3 3 3 3 3 2 2 2 2 1 1 1 2 2 2 2 2 1 1 1 1
3 3 2 5 3 3 9 11 12 9 8 8 13 13 5 4 5 5 4 4 5 5 4 4 3 3 3 3 2 2 2 1 1 1 1 2 2 2 2 2 2 2 1 1
5 4 3 2 1 9 9 3 8 9 10 10 10 8 5 6 5 3 3 3 4 4 4 4 3 2 2 2 2 2 2 1 1 1 2 2 2 2 2 2 2 2 2 2
7 6 4 3 5 10 8 4 5 6 8 7 9 8 5 3 3 4 1 1 3 4 4 3 2 2 1 1 1 1 2 2 2 2 2 2 2 2 2 2 2 2 2 2
2 4 4 4 5 9 7 2 3 3 7 4 5 6 4 0 2 5 3 3 4 4 3 2 2 2 1 2 1 1 1 2 2 2 3 2 2 2 2 2 2 2 2 2
2 3 6 6 8 10 6 2 3 5 7 1 2 4 3 4 5 3 4 4 4 3 3 2 2 1 1 2 2 1 1 2 3 3 3 3 2 2 2 2 2 2 2 2
7 6 7 5 7 12 2 4 7 6 1 1 1 1 2 3 2 2 3 3 3 3 3 3 2 2 3 2 2 1 2 3 3 2 2 2 3 2 2 2 2 2 1 2
7 8 6 9 9 3 2 4 2 1 1 2 2 2 1 2 2 2 2 3 3 2 2 3 2 2 3 3 2 1 3 3 3 2 2 2 3 2 2 2 2 1 1 1
4 2 3 5 7 4 3 3 2 2 3 3 2 2 1 2 2 2 2 2 2 2 2 2 2 2 3 4 3 2 3 3 2 2 2 2 2 3 2 2 1 1 1 1
5 4 3 7 5 3 4 3 3 2 2 2 2 2 2 2 2 2 2 2 2 2 2 2 1 2 3 4 4 4 3 3 2 2 2 2 2 2 2 2 2 2 2 2
4 6 7 8 5 4 4 1 1 2 3 2 2 2 1 1 2 2 2 1 1 1 2 1 2 2 3 3 3 4 3 2 2 2 2 2 2 2 2 2 3 4 4 5
Wind_Direction
92 121 205 212 209 222 201 218 251 256 231 226 244 261 268 255 242 251 258 259 260 258 266 275 274 257 202 189 183 180 177 178 166 165 172 177 188 185 186 188 186 184 183 179
69 238 231 211 207 219 228 242 259 278 258 239 270 272 263 241 233 235 241 248 255 266 277 288 296 342 240 207 193 182 182 180 178 180 180 177 169 177 184 182 187 187 187 185
200 232 214 191 208 218 230 227 238 256 311 294 302 293 264 251 238 247 247 245 247 247 256 273 281 266 256 258 215 189 182 178 179 170 147 126 111 105 157 193 202 197 195 194
231 248 211 202 214 204 244 229 223 235 261 273 208 284 272 255 272 260 259 261 263 269 266 276 282 281 254 251 232 191 172 170 171 163 166 170 177 187 196 190 197 202 198 196
239 223 197 217 227 200 226 230 210 219 220 263 229 246 279 264 263 262 256 254 266 271 267 277 271 249 265 296 308 181 156 159 165 170 175 180 184 185 168 160 178 191 197 193
251 250 218 223 237 201 173 53 30 71 169 253 223 210 272 228 228 256 256 254 268 284 285 305 337 18 13 19 24 57 135 163 169 174 178 184 183 170 158 169 186 195 198 201
279 259 246 193 135 234 142 118 16 332 270 247 204 211 249 236 232 238 249 258 269 270 276 318 6 4 351 358 6 355 160 177 178 179 186 193 191 183 183 188 196 195 199 213
239 262 234 205 200 200 201 175 181 211 232 266 231 231 247 234 248 286 296 290 321 326 322 319 320 322 316 328 346 324 229 210 193 188 195 192 190 190 194 193 195 203 211 214
216 257 302 271 253 172 174 206 198 174 237 268 254 265 289 230 271 303 337 356 319 311 319 325 334 337 340 336 334 290 268 247 220 197 190 187 193 196 196 191 191 202 213 208
185 258 281 286 3 254 198 167 142 170 192 247 266 250 247 238 246 272 304 312 312 327 337 340 342 339 346 349 356 14 9 267 248 197 186 166 188 203 190 176 189 197 208 202
187 218 288 252 204 201 170 179 180 183 196 199 253 260 236 219 218 236 267 297 304 307 305 321 336 342 357 7 13 11 5 11 9 8 78 116 133 128 162 176 191 199 198 195
189 175 250 247 241 220 195 191 170 189 234 225 242 264 300 208 254 248 279 306 325 323 316 338 351 1 12 9 3 359 1 7 0 3 23 61 86 98 113 194 229 194 188 194
171 157 313 320 309 316 231 215 201 186 183 210 225 258 336 15 341 330 316 317 330 342 343 355 7 7 2 0 356 351 354 355 1 27 45 36 27 83 189 258 269 228 195 186
123 187 201 224 247 214 237 237 199 175 211 234 235 255 282 301 305 307 308 304 305 305 310 336 341 339 337 338 345 349 350 357 2 24 51 29 344 320 279 280 283 246 205 190
132 223 236 256 267 251 247 243 214 214 222 227 247 252 264 270 268 282 295 303 304 301 297 290 296 306 318 324 333 342 343 349 358 11 20 340 340 348 355 354 330 340 337 258
160 217 237 269 260 256 262 249 230 233 237 243 261 268 265 275 287 291 287 280 278 282 282 283 288 292 294 294 304 321 331 337 355 3 344 354 6 7 4 356 349 351 332 309
189 174 195 258 286 313 261 235 222 223 220 219 242 258 275 280 275 269 272 268 268 278 281 280 277 271 280 281 288 291 311 345 6 6 3 8 11 6 358 354 356 344 319 307
195 189 199 241 40 244 248 200 205 222 238 231 244 264 260 260 276 283 276 264 281 290 288 285 285 291 300 315 330 336 358 6 7 12 7 4 2 352 354 0 349 333 332 313
206 188 183 184 232 267 279 237 190 210 253 233 241 257 270 288 305 295 304 288 282 291 292 291 294 302 328 344 345 9 5 3 9 2 352 344 343 343 344 339 334 332 327 317
190 187 184 191 213 242 253 223 191 172 259 243 221 240 253 258 262 275 338 342 332 336 338 342 356 17 16 353 16 45 7 360 341 335 335 333 333 327 319 315 319 324 317 312
161 190 207 218 236 256 258 226 139 190 249 269 212 230 224 219 237 287 335 344 349 350 357 9 27 26 4 6 36 31 5 336 331 337 338 338 335 323 310 314 319 320 320 328
188 189 203 196 228 251 228 149 189 226 297 335 301 270 246 258 292 319 333 341 349 358 8 15 24 15 8 13 37 13 341 337 343 341 340 340 337 329 327 326 326 333 328 326
209 202 200 204 223 247 171 198 227 314 288 294 290 284 236 253 276 302 322 331 342 353 3 11 24 15 6 4 13 348 335 348 349 349 342 338 340 339 337 323 317 327 326 309
240 228 214 249 256 248 248 253 275 263 265 287 285 281 233 235 250 274 288 312 330 345 352 0 15 8 352 352 355 349 343 345 348 343 337 340 341 339 341 331 319 306 295 288
221 189 221 253 267 291 260 244 260 277 288 300 298 272 234 221 241 249 271 291 307 327 341 351 352 344 337 346 350 349 348 347 341 334 334 334 332 328 329 328 314 299 285 270
200 196 205 236 231 220 248 268 286 269 271 267 268 296 294 225 245 259 270 289 305 315 329 343 344 337 331 338 340 342 342 339 330 326 327 323 319 320 321 321 321 312 304 307